Time,TemperatureF,DewpointF,PressureIn,WindDirection,WindDirectionDegrees,WindSpeedMPH,WindSpeedGustMPH,Humidity,HourlyPrecipIn,Conditions,Clouds,dailyrainin,SoftwareType,DateUTC
2013-08-23 00:02:00,64.4,53.6,29.99,ESE,112,3.8,4.6,68,0.00,CLR,,0.00,WeatherDisplay:10.37,2013-08-23 06:02:00,
2013-08-23 00:07:00,64.2,53.4,29.99,ESE,112,3.5,4.2,68,0.00,CLR,,0.00,WeatherDisplay:10.37,2013-08-23 06:07:00,
2013-08-23 00:12:00,64.2,53.4,29.99,ENE,68,3.5,4.6,68,0.00,CLR,,0.00,WeatherDisplay:10.37,2013-08-23 06:12:00,
2013-08-23 00:17:00,64.0,53.6,29.98,ENE,68,3.7,3.7,69,0.00,CLR,,0.00,WeatherDisplay:10.37,2013-08-23 06:17:00,
2013-08-23 00:22:00,64.0,53.6,29.98,NE,45,2.7,3.5,69,0.00,CLR,,0.00,WeatherDisplay:10.37,2013-08-23 06:22:00,
2013-08-23 00:27:00,63.9,53.5,29.98,East,90,3.1,4.6,69,0.00,CLR,,0.00,WeatherDisplay:10.37,2013-08-23 06:27:00,
2013-08-23 00:32:00,63.9,53.5,29.98,SSE,158,3.8,4.2,69,0.00,CLR,,0.00,WeatherDisplay:10.37,2013-08-23 06:32:00,
2013-08-23 00:37:00,63.9,53.5,29.98,SSE,158,4.1,4.6,69,0.00,CLR,,0.00,WeatherDisplay:10.37,2013-08-23 06:37:00,
2013-08-23 00:42:00,63.9,53.5,29.98,East,90,4.4,5.8,69,0.00,CLR,,0.00,WeatherDisplay:10.37,2013-08-23 06:42:00,
2013-08-23 00:47:00,63.9,53.5,29.98,ESE,112,4.5,5.8,69,0.00,CLR,,0.00,WeatherDisplay:10.37,2013-08-23 06:47:00,
2013-08-23 00:52:00,63.9,53.9,29.97,East,90,4.4,4.7,70,0.00,CLR,,0.00,WeatherDisplay:10.37,2013-08-23 06:52:00,
2013-08-23 00:57:00,63.7,53.7,29.97,SE,135,4.1,4.6,70,0.00,CLR,,0.00,WeatherDisplay:10.37,2013-08-23 06:57:00,
2013-08-23 01:02:00,63.5,53.5,29.97,NE,45,3.7,5.8,70,0.00,CLR,,0.00,WeatherDisplay:10.37,2013-08-23 07:02:00,
2013-08-23 01:07:00,63.5,53.5,29.97,East,90,3.2,3.5,70,0.00,CLR,,0.00,WeatherDisplay:10.37,2013-08-23 07:07:00,
2013-08-23 01:12:00,63.5,53.5,29.97,ESE,112,4.1,5.8,70,0.00,CLR,,0.00,WeatherDisplay:10.37,2013-08-23 07:12:00,
2013-08-23 01:17:00,63.7,53.7,29.97,ESE,112,4.2,5.8,70,0.00,CLR,,0.00,WeatherDisplay:10.37,2013-08-23 07:17:00,
2013-08-23 01:22:00,63.9,53.9,29.97,ESE,112,4.2,5.8,70,0.00,CLR,,0.00,WeatherDisplay:10.37,2013-08-23 07:22:00,
2013-08-23 01:27:00,63.9,53.9,29.97,East,90,3.7,4.7,70,0.00,CLR,,0.00,WeatherDisplay:10.37,2013-08-23 07:27:00,
2013-08-23 01:32:00,63.9,53.9,29.97,SE,135,4.4,4.6,70,0.00,CLR,,0.00,WeatherDisplay:10.37,2013-08-23 07:32:00,
2013-08-23 01:37:00,63.9,53.9,29.97,SSE,158,5.0,5.8,70,0.00,CLR,,0.00,WeatherDisplay:10.37,2013-08-23 07:37:00,
2013-08-23 01:42:00,63.9,53.9,29.96,ESE,112,3.8,5.8,70,0.00,CLR,,0.00,WeatherDisplay:10.37,2013-08-23 07:42:00,
2013-08-23 01:47:00,63.7,53.7,29.96,ESE,112,3.0,5.8,70,0.00,CLR,,0.00,WeatherDisplay:10.37,2013-08-23 07:47:00,
2013-08-23 01:52:00,63.5,53.9,29.96,East,90,2.2,2.3,71,0.00,CLR,,0.00,WeatherDisplay:10.37,2013-08-23 07:52:00,
2013-08-23 01:57:00,63.5,53.9,29.96,ESE,112,3.6,5.8,71,0.00,CLR,,0.00,WeatherDisplay:10.37,2013-08-23 07:57:00,
2013-08-23 02:02:00,63.5,53.9,29.95,East,90,3.8,4.6,71,0.00,CLR,,0.00,WeatherDisplay:10.37,2013-08-23 08:02:00,
2013-08-23 02:07:00,63.5,53.9,29.95,East,90,3.7,4.6,71,0.00,CLR,,0.00,WeatherDisplay:10.37,2013-08-23 08:07:00,
2013-08-23 02:12:00,63.7,54.1,29.95,East,90,2.3,3.5,71,0.00,CLR,,0.00,WeatherDisplay:10.37,2013-08-23 08:12:00,
2013-08-23 02:17:00,63.7,54.1,29.95,East,90,3.5,4.6,71,0.00,CLR,,0.00,WeatherDisplay:10.37,2013-08-23 08:17:00,
2013-08-23 02:22:00,63.9,54.3,29.95,ESE,112,2.6,3.5,71,0.00,CLR,,0.00,WeatherDisplay:10.37,2013-08-23 08:22:00,
2013-08-23 02:27:00,63.9,54.3,29.95,ESE,112,2.7,3.5,71,0.00,CLR,,0.00,WeatherDisplay:10.37,2013-08-23 08:27:00,
2013-08-23 02:32:00,63.9,54.3,29.95,ENE,68,2.2,2.3,71,0.00,CLR,,0.00,WeatherDisplay:10.37,2013-08-23 08:32:00,
2013-08-23 02:37:00,63.9,54.3,29.95,NE,45,2.0,2.7,71,0.00,CLR,,0.00,WeatherDisplay:10.37,2013-08-23 08:37:00,
2013-08-23 02:42:00,63.9,54.7,29.94,ESE,112,0.9,2.3,72,0.00,CLR,,0.00,WeatherDisplay:10.37,2013-08-23 08:42:00,
2013-08-23 02:47:00,63.9,54.7,29.94,NE,45,2.0,2.3,72,0.00,CLR,,0.00,WeatherDisplay:10.37,2013-08-23 08:47:00,
2013-08-23 02:52:00,63.9,54.7,29.94,ESE,112,2.0,2.3,72,0.00,CLR,,0.00,WeatherDisplay:10.37,2013-08-23 08:52:00,
2013-08-23 02:57:00,63.9,54.7,29.94,East,90,1.5,3.5,72,0.00,CLR,,0.00,WeatherDisplay:10.37,2013-08-23 08:57:00,
2013-08-23 03:02:00,63.9,54.7,29.94,East,90,2.3,3.7,72,0.00,CLR,,0.00,WeatherDisplay:10.37,2013-08-23 09:02:00,
2013-08-23 03:07:00,63.9,55.1,29.94,ESE,112,2.7,3.7,73,0.00,CLR,,0.00,WeatherDisplay:10.37,2013-08-23 09:07:00,
2013-08-23 03:12:00,64.0,55.2,29.94,ESE,112,4.5,5.3,73,0.00,BKN,,0.00,WeatherDisplay:10.37,2013-08-23 09:12:00,
2013-08-23 03:17:00,64.0,55.2,29.93,ESE,112,4.4,4.7,73,0.00,BKN,,0.00,WeatherDisplay:10.37,2013-08-23 09:17:00,
2013-08-23 03:22:00,64.2,55.4,29.93,SSE,158,3.7,5.8,73,0.00,BKN,,0.00,WeatherDisplay:10.37,2013-08-23 09:22:00,
2013-08-23 03:27:00,64.2,55.4,29.93,ESE,112,4.5,5.8,73,0.00,BKN,,0.00,WeatherDisplay:10.37,2013-08-23 09:27:00,
2013-08-23 03:32:00,64.4,55.6,29.93,SE,135,3.2,4.6,73,0.00,BKN,,0.00,WeatherDisplay:10.37,2013-08-23 09:32:00,
2013-08-23 03:37:00,64.4,55.6,29.93,SE,135,2.9,3.5,73,0.00,BKN,,0.00,WeatherDisplay:10.37,2013-08-23 09:37:00,
2013-08-23 03:42:00,64.4,56.3,29.93,ESE,112,3.2,4.6,75,0.00,BKN,,0.00,WeatherDisplay:10.37,2013-08-23 09:42:00,
2013-08-23 03:47:00,64.8,57.1,29.93,ESE,112,5.9,8.1,76,0.00,BKN,,0.00,WeatherDisplay:10.37,2013-08-23 09:47:00,
2013-08-23 03:52:00,65.5,57.7,29.92,ESE,112,4.3,5.8,76,0.00,BKN,,0.00,WeatherDisplay:10.37,2013-08-23 09:52:00,
2013-08-23 03:57:00,65.5,57.7,29.92,SE,135,5.9,6.9,76,0.00,BKN,,0.00,WeatherDisplay:10.37,2013-08-23 09:57:00,
2013-08-23 04:02:00,65.3,57.9,29.92,ESE,112,6.2,9.9,77,0.00,BKN,,0.00,WeatherDisplay:10.37,2013-08-23 10:02:00,
2013-08-23 04:07:00,65.3,57.9,29.92,ESE,112,5.9,6.3,77,0.00,BKN,,0.00,WeatherDisplay:10.37,2013-08-23 10:07:00,
2013-08-23 04:12:00,65.1,57.7,29.92,ESE,112,4.9,9.2,77,0.00,SCT,,0.00,WeatherDisplay:10.37,2013-08-23 10:12:00,
2013-08-23 04:17:00,64.9,57.5,29.92,SSE,158,4.5,5.8,77,0.00,SCT,,0.00,WeatherDisplay:10.37,2013-08-23 10:17:00,
2013-08-23 04:22:00,64.8,57.4,29.92,ESE,112,5.5,8.1,77,0.00,SCT,,0.00,WeatherDisplay:10.37,2013-08-23 10:22:00,
2013-08-23 04:27:00,64.6,57.2,29.92,East,90,5.0,5.8,77,0.00,SCT,,0.00,WeatherDisplay:10.37,2013-08-23 10:27:00,
2013-08-23 04:32:00,64.4,57.4,29.92,SE,135,4.5,5.8,78,0.00,SCT,,0.00,WeatherDisplay:10.37,2013-08-23 10:32:00,
2013-08-23 04:37:00,64.2,57.2,29.91,East,90,4.5,5.8,78,0.00,SCT,,0.00,WeatherDisplay:10.37,2013-08-23 10:37:00,
2013-08-23 04:42:00,64.0,57.0,29.91,ESE,112,3.2,3.5,78,0.00,SCT,,0.00,WeatherDisplay:10.37,2013-08-23 10:42:00,
2013-08-23 04:47:00,64.0,57.4,29.91,SE,135,4.6,6.3,79,0.00,SCT,,0.00,WeatherDisplay:10.37,2013-08-23 10:47:00,
2013-08-23 04:52:00,63.9,57.3,29.91,East,90,4.2,4.6,79,0.00,SCT,,0.00,WeatherDisplay:10.37,2013-08-23 10:52:00,
2013-08-23 04:57:00,63.7,57.4,29.91,ENE,68,3.2,4.6,80,0.00,SCT,,0.00,WeatherDisplay:10.37,2013-08-23 10:57:00,
2013-08-23 05:02:00,63.5,57.2,29.91,ESE,112,2.9,3.5,80,0.00,SCT,,0.00,WeatherDisplay:10.37,2013-08-23 11:02:00,
2013-08-23 05:07:00,63.1,57.2,29.91,ESE,112,2.8,5.3,81,0.00,SCT,,0.00,WeatherDisplay:10.37,2013-08-23 11:07:00,
2013-08-23 05:12:00,63.0,57.1,29.91,SE,135,4.0,4.6,81,0.00,CLR,,0.00,WeatherDisplay:10.37,2013-08-23 11:12:00,
2013-08-23 05:17:00,63.0,57.4,29.90,ENE,68,3.2,4.6,82,0.00,CLR,,0.00,WeatherDisplay:10.37,2013-08-23 11:17:00,
2013-08-23 05:23:00,62.8,57.2,29.90,NE,45,3.4,4.6,82,0.00,CLR,,0.00,WeatherDisplay:10.37,2013-08-23 11:23:00,
2013-08-23 05:28:00,62.6,57.4,29.91,ESE,112,2.5,4.6,83,0.00,CLR,,0.00,WeatherDisplay:10.37,2013-08-23 11:28:00,
2013-08-23 05:33:00,62.6,57.4,29.91,East,90,3.9,4.6,83,0.00,CLR,,0.00,WeatherDisplay:10.37,2013-08-23 11:33:00,
2013-08-23 05:38:00,62.6,57.4,29.91,SSE,158,4.3,5.8,83,0.00,CLR,,0.00,WeatherDisplay:10.37,2013-08-23 11:38:00,
2013-08-23 05:43:00,62.4,57.2,29.90,ESE,112,4.5,4.6,83,0.00,CLR,,0.00,WeatherDisplay:10.37,2013-08-23 11:43:00,
2013-08-23 05:48:00,62.4,57.2,29.90,SE,135,4.5,5.8,83,0.00,CLR,,0.00,WeatherDisplay:10.37,2013-08-23 11:48:00,
2013-08-23 05:53:00,62.4,57.2,29.90,ESE,112,4.8,5.8,83,0.00,CLR,,0.00,WeatherDisplay:10.37,2013-08-23 11:53:00,
2013-08-23 05:58:00,62.2,57.3,29.90,ENE,68,3.6,4.6,84,0.00,CLR,,0.00,WeatherDisplay:10.37,2013-08-23 11:58:00,
2013-08-23 06:03:00,62.2,57.3,29.90,SSE,158,3.5,3.7,84,0.00,CLR,,0.00,WeatherDisplay:10.37,2013-08-23 12:03:00,
2013-08-23 06:08:00,62.2,57.3,29.90,SE,135,2.3,3.5,84,0.00,CLR,,0.00,WeatherDisplay:10.37,2013-08-23 12:08:00,
2013-08-23 06:13:00,62.2,57.6,29.90,SE,135,3.0,3.5,85,0.00,CLR,,0.00,WeatherDisplay:10.37,2013-08-23 12:13:00,
2013-08-23 06:18:00,62.1,57.5,29.90,ESE,112,3.6,4.7,85,0.00,CLR,,0.00,WeatherDisplay:10.37,2013-08-23 12:18:00,
2013-08-23 06:23:00,62.1,57.5,29.90,ESE,112,2.5,3.5,85,0.00,CLR,,0.00,WeatherDisplay:10.37,2013-08-23 12:23:00,
2013-08-23 06:28:00,62.1,57.9,29.90,SE,135,3.7,4.6,86,0.00,CLR,,0.00,WeatherDisplay:10.37,2013-08-23 12:28:00,
2013-08-23 06:33:00,62.2,58.0,29.90,ESE,112,3.7,4.6,86,0.00,CLR,,0.00,WeatherDisplay:10.37,2013-08-23 12:33:00,
2013-08-23 06:38:00,62.8,58.5,29.89,ESE,112,4.9,5.8,86,0.00,CLR,,0.00,WeatherDisplay:10.37,2013-08-23 12:38:00,
2013-08-23 06:43:00,63.5,59.2,29.89,ESE,112,3.6,5.8,86,0.00,CLR,,0.00,WeatherDisplay:10.37,2013-08-23 12:43:00,
2013-08-23 06:48:00,64.2,59.6,29.89,ESE,112,5.6,6.9,85,0.00,CLR,,0.00,WeatherDisplay:10.37,2013-08-23 12:48:00,
2013-08-23 06:53:00,64.4,59.5,29.89,ESE,112,4.1,5.8,84,0.00,CLR,,0.00,WeatherDisplay:10.37,2013-08-23 12:53:00,
2013-08-23 06:58:00,64.9,59.6,29.89,SE,135,5.4,8.1,83,0.00,CLR,,0.00,WeatherDisplay:10.37,2013-08-23 12:58:00,
2013-08-23 07:03:00,65.7,60.1,29.90,ESE,112,6.3,6.9,82,0.00,CLR,,0.00,WeatherDisplay:10.37,2013-08-23 13:03:00,
2013-08-23 07:08:00,66.6,60.6,29.90,SE,135,5.5,5.8,81,0.00,CLR,,0.00,WeatherDisplay:10.37,2013-08-23 13:08:00,
2013-08-23 07:13:00,67.1,61.1,29.90,ESE,112,7.0,9.4,81,0.00,CLR,,0.00,WeatherDisplay:10.37,2013-08-23 13:13:00,
2013-08-23 07:18:00,67.3,60.9,29.89,ESE,112,7.8,9.2,80,0.00,CLR,,0.00,WeatherDisplay:10.37,2013-08-23 13:18:00,
2013-08-23 07:23:00,67.5,61.1,29.89,ESE,112,8.6,10.4,80,0.00,CLR,,0.00,WeatherDisplay:10.37,2013-08-23 13:23:00,
2013-08-23 07:28:00,67.8,61.4,29.89,ESE,112,7.5,10.4,80,0.00,CLR,,0.00,WeatherDisplay:10.37,2013-08-23 13:28:00,
2013-08-23 07:33:00,67.6,61.2,29.89,SE,135,4.8,5.8,80,0.00,CLR,,0.00,WeatherDisplay:10.37,2013-08-23 13:33:00,
2013-08-23 07:38:00,67.3,61.3,29.88,SE,135,4.7,5.8,81,0.00,CLR,,0.00,WeatherDisplay:10.37,2013-08-23 13:38:00,
2013-08-23 07:43:00,67.8,61.8,29.88,ESE,112,5.6,5.8,81,0.00,CLR,,0.00,WeatherDisplay:10.37,2013-08-23 13:43:00,
2013-08-23 07:48:00,68.7,62.6,29.88,ESE,112,8.6,10.4,81,0.00,CLR,,0.00,WeatherDisplay:10.37,2013-08-23 13:48:00,
2013-08-23 07:53:00,69.4,63.0,29.88,ESE,112,5.9,6.9,80,0.00,CLR,,0.00,WeatherDisplay:10.37,2013-08-23 13:53:00,
2013-08-23 07:58:00,70.0,63.2,29.88,SSE,158,7.5,9.2,79,0.00,CLR,,0.00,WeatherDisplay:10.37,2013-08-23 13:58:00,
2013-08-23 08:03:00,70.7,63.5,29.88,SE,135,7.5,10.4,78,0.00,CLR,,0.00,WeatherDisplay:10.37,2013-08-23 14:03:00,
2013-08-23 08:08:00,70.7,63.5,29.88,SE,135,11.5,16.1,78,0.00,CLR,,0.00,WeatherDisplay:10.37,2013-08-23 14:08:00,
2013-08-23 08:13:00,71.1,63.9,29.88,ESE,112,7.9,9.2,78,0.00,CLR,,0.00,WeatherDisplay:10.37,2013-08-23 14:13:00,
2013-08-23 08:18:00,71.4,64.2,29.88,ESE,112,7.2,11.5,78,0.00,CLR,,0.00,WeatherDisplay:10.37,2013-08-23 14:18:00,
2013-08-23 08:23:00,71.6,64.4,29.88,ESE,112,9.3,10.4,78,0.00,CLR,,0.00,WeatherDisplay:10.37,2013-08-23 14:23:00,
2013-08-23 08:28:00,71.4,64.2,29.87,ESE,112,11.5,13.8,78,0.00,CLR,,0.00,WeatherDisplay:10.37,2013-08-23 14:28:00,
2013-08-23 08:33:00,71.8,64.6,29.87,SSE,158,6.4,9.2,78,0.00,CLR,,0.00,WeatherDisplay:10.37,2013-08-23 14:33:00,
2013-08-23 08:38:00,72.0,64.8,29.87,SE,135,12.5,15.0,78,0.00,CLR,,0.00,WeatherDisplay:10.37,2013-08-23 14:38:00,
2013-08-23 08:43:00,72.1,64.9,29.87,SSE,158,11.1,12.7,78,0.00,CLR,,0.00,WeatherDisplay:10.37,2013-08-23 14:43:00,
2013-08-23 08:48:00,72.7,65.1,29.87,ESE,112,9.7,12.7,77,0.00,CLR,,0.00,WeatherDisplay:10.37,2013-08-23 14:48:00,
2013-08-23 08:53:00,73.0,65.4,29.87,ESE,112,7.8,10.4,77,0.00,CLR,,0.00,WeatherDisplay:10.37,2013-08-23 14:53:00,
2013-08-23 08:58:00,73.2,65.2,29.87,SE,135,11.4,11.5,76,0.00,CLR,,0.00,WeatherDisplay:10.37,2013-08-23 14:58:00,
2013-08-23 09:03:00,73.6,65.6,29.87,ESE,112,11.4,12.7,76,0.00,CLR,,0.00,WeatherDisplay:10.37,2013-08-23 15:03:00,
2013-08-23 09:08:00,74.1,66.0,29.87,East,90,7.9,8.1,76,0.00,CLR,,0.00,WeatherDisplay:10.37,2013-08-23 15:08:00,
2013-08-23 09:13:00,74.5,66.1,29.86,ESE,112,7.5,10.4,75,0.00,CLR,,0.00,WeatherDisplay:10.37,2013-08-23 15:13:00,
2013-08-23 09:18:00,74.7,65.9,29.86,ESE,112,5.8,5.8,74,0.00,CLR,,0.00,WeatherDisplay:10.37,2013-08-23 15:18:00,
2013-08-23 09:23:00,75.2,65.9,29.86,SE,135,8.4,11.5,73,0.00,CLR,,0.00,WeatherDisplay:10.37,2013-08-23 15:23:00,
2013-08-23 09:28:00,75.2,65.9,29.86,SSE,158,8.2,16.1,73,0.00,CLR,,0.00,WeatherDisplay:10.37,2013-08-23 15:28:00,
2013-08-23 09:33:00,75.4,66.1,29.86,ESE,112,8.7,13.8,73,0.00,CLR,,0.00,WeatherDisplay:10.37,2013-08-23 15:33:00,
2013-08-23 09:38:00,76.1,66.8,29.86,South,180,5.3,6.9,73,0.00,CLR,,0.00,WeatherDisplay:10.37,2013-08-23 15:38:00,
2013-08-23 09:43:00,76.1,66.4,29.86,South,180,10.5,12.7,72,0.00,CLR,,0.00,WeatherDisplay:10.37,2013-08-23 15:43:00,
2013-08-23 09:48:00,76.1,66.4,29.86,SE,135,10.5,11.5,72,0.00,CLR,,0.00,WeatherDisplay:10.37,2013-08-23 15:48:00,
2013-08-23 09:53:00,76.5,66.8,29.86,SE,135,9.7,11.5,72,0.00,CLR,,0.00,WeatherDisplay:10.37,2013-08-23 15:53:00,
2013-08-23 09:58:00,76.5,66.8,29.86,ESE,112,12.6,15.0,72,0.00,CLR,,0.00,WeatherDisplay:10.37,2013-08-23 15:58:00,
2013-08-23 10:03:00,76.5,66.8,29.86,ESE,112,9.4,11.5,72,0.00,CLR,,0.00,WeatherDisplay:10.37,2013-08-23 16:03:00,
2013-08-23 10:08:00,76.8,66.7,29.86,ESE,112,14.5,16.1,71,0.00,CLR,,0.00,WeatherDisplay:10.37,2013-08-23 16:08:00,
2013-08-23 10:13:00,77.0,66.9,29.86,ESE,112,11.0,13.8,71,0.00,CLR,,0.00,WeatherDisplay:10.37,2013-08-23 16:13:00,
2013-08-23 10:18:00,77.2,67.1,29.85,ESE,112,13.6,16.1,71,0.00,CLR,,0.00,WeatherDisplay:10.37,2013-08-23 16:18:00,
2013-08-23 10:23:00,77.0,66.9,29.85,SE,135,10.6,12.7,71,0.00,CLR,,0.00,WeatherDisplay:10.37,2013-08-23 16:23:00,
2013-08-23 10:28:00,77.7,67.1,29.85,ESE,112,11.2,15.0,70,0.00,CLR,,0.00,WeatherDisplay:10.37,2013-08-23 16:28:00,
2013-08-23 10:33:00,79.2,68.1,29.85,SSE,158,8.9,13.5,69,0.00,CLR,,0.00,WeatherDisplay:10.37,2013-08-23 16:33:00,
2013-08-23 10:38:00,79.0,67.5,29.85,SSE,158,8.7,16.1,68,0.00,CLR,,0.00,WeatherDisplay:10.37,2013-08-23 16:38:00,
2013-08-23 10:43:00,78.8,67.3,29.85,ESE,112,12.7,18.4,68,0.00,CLR,,0.00,WeatherDisplay:10.37,2013-08-23 16:43:00,
2013-08-23 10:48:00,78.8,67.3,29.85,SSE,158,12.2,13.8,68,0.00,CLR,,0.00,WeatherDisplay:10.37,2013-08-23 16:48:00,
2013-08-23 10:53:00,79.2,67.3,29.84,SE,135,9.4,9.4,67,0.00,CLR,,0.00,WeatherDisplay:10.37,2013-08-23 16:53:00,
2013-08-23 10:58:00,78.6,67.2,29.84,ESE,112,13.3,14.5,68,0.00,CLR,,0.00,WeatherDisplay:10.37,2013-08-23 16:58:00,
2013-08-23 11:03:00,79.2,67.7,29.84,ESE,112,10.0,12.7,68,0.00,CLR,,0.00,WeatherDisplay:10.37,2013-08-23 17:03:00,
2013-08-23 11:09:00,79.3,67.8,29.84,ESE,112,9.9,12.4,68,0.00,CLR,,0.00,WeatherDisplay:10.37,2013-08-23 17:09:00,
2013-08-23 11:14:00,79.9,67.5,29.84,SSE,158,10.4,15.0,66,0.00,CLR,,0.00,WeatherDisplay:10.37,2013-08-23 17:14:00,
2013-08-23 11:19:00,79.5,67.1,29.84,SSE,158,12.6,16.0,66,0.00,CLR,,0.00,WeatherDisplay:10.37,2013-08-23 17:19:00,
2013-08-23 11:24:00,79.7,67.8,29.84,SE,135,13.2,15.0,67,0.00,CLR,,0.00,WeatherDisplay:10.37,2013-08-23 17:24:00,
2013-08-23 11:29:00,80.1,67.7,29.84,ESE,112,10.3,15.0,66,0.00,CLR,,0.00,WeatherDisplay:10.37,2013-08-23 17:29:00,
2013-08-23 11:34:00,80.8,67.9,29.84,SW,225,11.2,13.8,65,0.00,CLR,,0.00,WeatherDisplay:10.37,2013-08-23 17:34:00,
2013-08-23 11:39:00,81.1,67.8,29.83,SSW,202,8.9,13.8,64,0.00,CLR,,0.00,WeatherDisplay:10.37,2013-08-23 17:39:00,
2013-08-23 11:44:00,81.3,68.0,29.83,ESE,112,14.1,16.1,64,0.00,CLR,,0.00,WeatherDisplay:10.37,2013-08-23 17:44:00,
2013-08-23 11:49:00,81.0,67.2,29.83,ESE,112,12.3,15.0,63,0.00,CLR,,0.00,WeatherDisplay:10.37,2013-08-23 17:49:00,
2013-08-23 11:54:00,81.3,67.5,29.83,ESE,112,9.9,10.4,63,0.00,CLR,,0.00,WeatherDisplay:10.37,2013-08-23 17:54:00,
2013-08-23 11:59:00,83.1,67.8,29.83,SSW,202,12.1,13.8,60,0.00,CLR,,0.00,WeatherDisplay:10.37,2013-08-23 17:59:00,
2013-08-23 12:04:00,83.3,68.0,29.83,ESE,112,8.4,12.7,60,0.00,CLR,,0.00,WeatherDisplay:10.37,2013-08-23 18:04:00,
2013-08-23 12:09:00,83.1,67.8,29.83,SE,135,11.6,15.0,60,0.00,CLR,,0.00,WeatherDisplay:10.37,2013-08-23 18:09:00,
2013-08-23 12:14:00,83.1,67.8,29.83,SE,135,10.4,10.4,60,0.00,FEW,,0.00,WeatherDisplay:10.37,2013-08-23 18:14:00,
2013-08-23 12:19:00,83.8,67.9,29.82,SE,135,7.2,8.8,59,0.00,FEW,,0.00,WeatherDisplay:10.37,2013-08-23 18:19:00,
2013-08-23 12:24:00,84.0,68.1,29.82,ESE,112,14.2,16.1,59,0.00,FEW,,0.00,WeatherDisplay:10.37,2013-08-23 18:24:00,
2013-08-23 12:29:00,84.6,68.2,29.82,ESE,112,15.6,15.6,58,0.00,FEW,,0.00,WeatherDisplay:10.37,2013-08-23 18:29:00,
2013-08-23 12:34:00,84.9,68.0,29.82,SE,135,15.1,20.7,57,0.00,FEW,,0.00,WeatherDisplay:10.37,2013-08-23 18:34:00,
2013-08-23 12:39:00,85.6,67.6,29.82,SE,135,14.7,18.4,55,0.00,FEW,,0.00,WeatherDisplay:10.37,2013-08-23 18:39:00,
2013-08-23 12:44:00,85.8,67.2,29.82,SE,135,14.7,16.1,54,0.00,FEW,,0.00,WeatherDisplay:10.37,2013-08-23 18:44:00,
2013-08-23 12:49:00,85.8,67.2,29.82,ESE,112,15.5,16.1,54,0.00,FEW,,0.00,WeatherDisplay:10.37,2013-08-23 18:49:00,
2013-08-23 12:54:00,86.2,67.6,29.81,SSE,158,9.0,15.0,54,0.00,FEW,,0.00,WeatherDisplay:10.37,2013-08-23 18:54:00,
2013-08-23 12:59:00,86.7,67.5,29.81,SE,135,13.2,13.8,53,0.00,FEW,,0.00,WeatherDisplay:10.37,2013-08-23 18:59:00,
2013-08-23 13:04:00,87.1,67.3,29.81,SSE,158,10.7,12.7,52,0.00,FEW,,0.00,WeatherDisplay:10.37,2013-08-23 19:04:00,
2013-08-23 13:09:00,87.1,66.8,29.81,South,180,10.2,10.4,51,0.00,FEW,,0.00,WeatherDisplay:10.37,2013-08-23 19:09:00,
2013-08-23 13:14:00,87.3,67.0,29.81,SSE,158,12.9,17.3,51,0.00,CLR,,0.00,WeatherDisplay:10.37,2013-08-23 19:14:00,
2013-08-23 13:19:00,87.4,67.1,29.81,SSE,158,9.6,13.8,51,0.00,CLR,,0.00,WeatherDisplay:10.37,2013-08-23 19:19:00,
2013-08-23 13:24:00,88.5,67.5,29.81,SE,135,10.5,12.7,50,0.00,CLR,,0.00,WeatherDisplay:10.37,2013-08-23 19:24:00,
2013-08-23 13:29:00,88.0,67.0,29.80,SSE,158,16.5,17.3,50,0.00,CLR,,0.00,WeatherDisplay:10.37,2013-08-23 19:29:00,
2013-08-23 13:34:00,88.0,67.0,29.80,SSE,158,17.1,17.3,50,0.00,CLR,,0.00,WeatherDisplay:10.37,2013-08-23 19:34:00,
2013-08-23 13:39:00,88.5,66.9,29.79,SSE,158,10.2,12.7,49,0.00,CLR,,0.00,WeatherDisplay:10.37,2013-08-23 19:39:00,
2013-08-23 13:44:00,88.2,66.0,29.79,SE,135,13.7,16.1,48,0.00,CLR,,0.00,WeatherDisplay:10.37,2013-08-23 19:44:00,
2013-08-23 13:49:00,88.5,66.3,29.79,SSE,158,7.5,11.5,48,0.00,CLR,,0.00,WeatherDisplay:10.37,2013-08-23 19:49:00,
2013-08-23 13:54:00,88.3,65.5,29.80,SE,135,10.7,15.0,47,0.00,CLR,,0.00,WeatherDisplay:10.37,2013-08-23 19:54:00,
2013-08-23 13:59:00,88.7,65.9,29.80,East,90,11.2,16.1,47,0.00,CLR,,0.00,WeatherDisplay:10.37,2013-08-23 19:59:00,
2013-08-23 14:04:00,89.6,66.7,29.79,ESE,112,9.5,10.4,47,0.00,CLR,,0.00,WeatherDisplay:10.37,2013-08-23 20:04:00,
2013-08-23 14:09:00,89.4,65.9,29.79,SSE,158,11.2,11.5,46,0.00,CLR,,0.00,WeatherDisplay:10.37,2013-08-23 20:09:00,
2013-08-23 14:14:00,89.2,65.7,29.79,ESE,112,7.7,9.2,46,0.00,CLR,,0.00,WeatherDisplay:10.37,2013-08-23 20:14:00,
2013-08-23 14:19:00,90.1,65.9,29.79,South,180,6.1,8.3,45,0.00,CLR,,0.00,WeatherDisplay:10.37,2013-08-23 20:19:00,
2013-08-23 14:24:00,89.8,65.6,29.79,SSE,158,15.0,15.0,45,0.00,CLR,,0.00,WeatherDisplay:10.37,2013-08-23 20:24:00,
2013-08-23 14:29:00,89.4,65.9,29.78,South,180,12.3,15.0,46,0.00,CLR,,0.00,WeatherDisplay:10.37,2013-08-23 20:29:00,
2013-08-23 14:34:00,88.9,64.2,29.78,SSE,158,10.6,11.4,44,0.00,CLR,,0.00,WeatherDisplay:10.37,2013-08-23 20:34:00,
2013-08-23 14:39:00,89.1,65.0,29.78,South,180,12.9,13.8,45,0.00,CLR,,0.00,WeatherDisplay:10.37,2013-08-23 20:39:00,
2013-08-23 14:44:00,88.5,64.4,29.78,SSE,158,12.0,13.8,45,0.00,CLR,,0.00,WeatherDisplay:10.37,2013-08-23 20:44:00,
2013-08-23 14:49:00,88.5,65.1,29.78,SE,135,9.7,10.4,46,0.00,CLR,,0.00,WeatherDisplay:10.37,2013-08-23 20:49:00,
2013-08-23 14:54:00,89.4,65.3,29.78,SSE,158,11.7,14.0,45,0.00,CLR,,0.00,WeatherDisplay:10.37,2013-08-23 20:54:00,
2013-08-23 14:59:00,89.2,65.7,29.78,ESE,112,10.0,13.0,46,0.00,CLR,,0.00,WeatherDisplay:10.37,2013-08-23 20:59:00,
2013-08-23 15:04:00,89.4,65.9,29.77,ESE,112,14.1,16.1,46,0.00,CLR,,0.00,WeatherDisplay:10.37,2013-08-23 21:04:00,
2013-08-23 15:09:00,89.6,66.1,29.77,SSE,158,13.5,13.8,46,0.00,CLR,,0.00,WeatherDisplay:10.37,2013-08-23 21:09:00,
2013-08-23 15:14:00,89.6,66.1,29.77,ESE,112,8.8,10.4,46,0.00,CLR,,0.00,WeatherDisplay:10.37,2013-08-23 21:14:00,
2013-08-23 15:19:00,89.2,65.7,29.77,South,180,11.7,15.0,46,0.00,CLR,,0.00,WeatherDisplay:10.37,2013-08-23 21:19:00,
2013-08-23 15:24:00,89.6,65.4,29.77,SSE,158,11.6,13.8,45,0.00,CLR,,0.00,WeatherDisplay:10.37,2013-08-23 21:24:00,
2013-08-23 15:29:00,90.0,65.8,29.77,SE,135,10.9,15.0,45,0.00,CLR,,0.00,WeatherDisplay:10.37,2013-08-23 21:29:00,
2013-08-23 15:34:00,90.0,65.8,29.77,ESE,112,14.0,16.1,45,0.00,CLR,,0.00,WeatherDisplay:10.37,2013-08-23 21:34:00,
2013-08-23 15:39:00,90.0,65.8,29.76,SSE,158,9.3,16.1,45,0.00,CLR,,0.00,WeatherDisplay:10.37,2013-08-23 21:39:00,
2013-08-23 15:44:00,89.6,65.4,29.76,SE,135,12.3,16.1,45,0.00,CLR,,0.00,WeatherDisplay:10.37,2013-08-23 21:44:00,
2013-08-23 15:49:00,90.0,65.8,29.76,South,180,7.9,11.5,45,0.00,CLR,,0.00,WeatherDisplay:10.37,2013-08-23 21:49:00,
2013-08-23 15:54:00,90.0,65.8,29.76,South,180,9.9,10.4,45,0.00,CLR,,0.00,WeatherDisplay:10.37,2013-08-23 21:54:00,
2013-08-23 15:59:00,89.8,65.0,29.76,SE,135,14.9,16.1,44,0.00,CLR,,0.00,WeatherDisplay:10.37,2013-08-23 21:59:00,
2013-08-23 16:04:00,90.0,65.8,29.75,SE,135,8.0,10.4,45,0.00,CLR,,0.00,WeatherDisplay:10.37,2013-08-23 22:04:00,
2013-08-23 16:09:00,90.1,65.9,29.75,ESE,112,11.7,13.8,45,0.00,CLR,,0.00,WeatherDisplay:10.37,2013-08-23 22:09:00,
2013-08-23 16:14:00,90.5,65.6,29.75,ESE,112,9.5,13.8,44,0.00,CLR,,0.00,WeatherDisplay:10.37,2013-08-23 22:14:00,
2013-08-23 16:19:00,90.5,65.6,29.75,ESE,112,11.2,11.9,44,0.00,CLR,,0.00,WeatherDisplay:10.37,2013-08-23 22:19:00,
2013-08-23 16:24:00,90.5,66.3,29.75,SSE,158,14.5,17.3,45,0.00,CLR,,0.00,WeatherDisplay:10.37,2013-08-23 22:24:00,
2013-08-23 16:29:00,90.5,66.3,29.75,SE,135,8.3,8.3,45,0.00,CLR,,0.00,WeatherDisplay:10.37,2013-08-23 22:29:00,
2013-08-23 16:34:00,90.7,66.4,29.75,South,180,10.1,13.0,45,0.00,CLR,,0.00,WeatherDisplay:10.37,2013-08-23 22:34:00,
2013-08-23 16:39:00,90.7,66.4,29.75,SSE,158,9.1,10.4,45,0.00,CLR,,0.00,WeatherDisplay:10.37,2013-08-23 22:39:00,
2013-08-23 16:44:00,90.3,65.4,29.75,SE,135,11.0,18.4,44,0.00,CLR,,0.00,WeatherDisplay:10.37,2013-08-23 22:44:00,
2013-08-23 16:49:00,90.1,65.2,29.75,ESE,112,12.9,17.1,44,0.00,CLR,,0.00,WeatherDisplay:10.37,2013-08-23 22:49:00,
2013-08-23 16:55:00,90.0,65.2,29.74,SSE,158,11.4,13.5,44,0.00,CLR,,0.00,WeatherDisplay:10.37,2013-08-23 22:55:00,
2013-08-23 17:00:00,90.0,65.8,29.74,SSE,158,8.1,10.4,45,0.00,CLR,,0.00,WeatherDisplay:10.37,2013-08-23 23:00:00,
2013-08-23 17:05:00,89.8,65.0,29.74,ESE,112,13.1,16.1,44,0.00,CLR,,0.00,WeatherDisplay:10.37,2013-08-23 23:05:00,
2013-08-23 17:10:00,89.6,65.4,29.74,ESE,112,10.2,12.7,45,0.00,CLR,,0.00,WeatherDisplay:10.37,2013-08-23 23:10:00,
2013-08-23 17:15:00,89.6,65.4,29.74,SE,135,16.1,17.3,45,0.00,CLR,,0.00,WeatherDisplay:10.37,2013-08-23 23:15:00,
2013-08-23 17:20:00,89.4,65.3,29.74,ESE,112,14.2,14.2,45,0.00,CLR,,0.00,WeatherDisplay:10.37,2013-08-23 23:20:00,
2013-08-23 17:25:00,89.4,65.3,29.74,ESE,112,12.4,16.1,45,0.00,CLR,,0.00,WeatherDisplay:10.37,2013-08-23 23:25:00,
2013-08-23 17:30:00,89.2,65.1,29.74,ESE,112,10.1,13.8,45,0.00,CLR,,0.00,WeatherDisplay:10.37,2013-08-23 23:30:00,
2013-08-23 17:35:00,89.1,65.0,29.74,SE,135,10.3,13.8,45,0.00,CLR,,0.00,WeatherDisplay:10.37,2013-08-23 23:35:00,
2013-08-23 17:40:00,89.1,65.0,29.74,SE,135,15.5,16.1,45,0.00,CLR,,0.00,WeatherDisplay:10.37,2013-08-23 23:40:00,
2013-08-23 17:45:00,89.1,65.6,29.74,ESE,112,11.5,13.5,46,0.00,CLR,,0.00,WeatherDisplay:10.37,2013-08-23 23:45:00,
2013-08-23 17:50:00,88.9,65.4,29.74,SE,135,11.6,11.6,46,0.00,CLR,,0.00,WeatherDisplay:10.37,2013-08-23 23:50:00,
2013-08-23 17:55:00,88.5,65.1,29.73,SE,135,10.9,12.7,46,0.00,CLR,,0.00,WeatherDisplay:10.37,2013-08-23 23:55:00,
2013-08-23 18:00:00,88.5,65.1,29.73,SSE,158,11.5,11.5,46,0.00,CLR,,0.00,WeatherDisplay:10.37,2013-08-24 00:00:00,
2013-08-23 18:05:00,88.5,65.7,29.74,ESE,112,10.7,14.0,47,0.00,CLR,,0.00,WeatherDisplay:10.37,2013-08-24 00:05:00,
2013-08-23 18:10:00,88.3,65.5,29.74,SE,135,11.9,15.0,47,0.00,CLR,,0.00,WeatherDisplay:10.37,2013-08-24 00:10:00,
2013-08-23 18:15:00,88.2,66.0,29.73,SSE,158,8.7,10.4,48,0.00,CLR,,0.00,WeatherDisplay:10.37,2013-08-24 00:15:00,
2013-08-23 18:20:00,87.8,65.7,29.73,ESE,112,10.0,11.5,48,0.00,CLR,,0.00,WeatherDisplay:10.37,2013-08-24 00:20:00,
2013-08-23 18:25:00,87.6,65.5,29.73,ESE,112,14.1,17.3,48,0.00,CLR,,0.00,WeatherDisplay:10.37,2013-08-24 00:25:00,
2013-08-23 18:30:00,87.4,65.9,29.73,SSE,158,10.6,15.0,49,0.00,CLR,,0.00,WeatherDisplay:10.37,2013-08-24 00:30:00,
2013-08-23 18:35:00,87.1,65.6,29.73,SE,135,10.3,12.7,49,0.00,CLR,,0.00,WeatherDisplay:10.37,2013-08-24 00:35:00,
2013-08-23 18:40:00,86.9,66.0,29.73,SE,135,11.5,15.0,50,0.00,CLR,,0.00,WeatherDisplay:10.37,2013-08-24 00:40:00,
2013-08-23 18:45:00,86.7,65.8,29.73,SE,135,9.4,10.4,50,0.00,CLR,,0.00,WeatherDisplay:10.37,2013-08-24 00:45:00,
2013-08-23 18:50:00,86.4,65.6,29.73,SE,135,10.0,13.8,50,0.00,CLR,,0.00,WeatherDisplay:10.37,2013-08-24 00:50:00,
2013-08-23 18:55:00,86.2,65.9,29.73,SE,135,11.8,12.7,51,0.00,CLR,,0.00,WeatherDisplay:10.37,2013-08-24 00:55:00,
2013-08-23 19:00:00,85.8,65.6,29.73,East,90,10.0,11.9,51,0.00,CLR,,0.00,WeatherDisplay:10.37,2013-08-24 01:00:00,
2013-08-23 19:05:00,85.5,65.9,29.73,East,90,9.7,11.9,52,0.00,CLR,,0.00,WeatherDisplay:10.37,2013-08-24 01:05:00,
2013-08-23 19:10:00,85.1,66.0,29.73,SE,135,7.6,8.1,53,0.00,CLR,,0.00,WeatherDisplay:10.37,2013-08-24 01:10:00,
2013-08-23 19:15:00,84.9,65.9,29.72,ESE,112,11.0,11.5,53,0.00,CLR,,0.00,WeatherDisplay:10.37,2013-08-24 01:15:00,
2013-08-23 19:20:00,84.9,65.9,29.72,ESE,112,11.4,11.5,53,0.00,CLR,,0.00,WeatherDisplay:10.37,2013-08-24 01:20:00,
2013-08-23 19:25:00,83.8,65.9,29.73,SE,135,7.3,8.1,55,0.00,CLR,,0.00,WeatherDisplay:10.37,2013-08-24 01:25:00,
2013-08-23 19:30:00,83.5,66.2,29.73,ESE,112,10.1,10.4,56,0.00,CLR,,0.00,WeatherDisplay:10.37,2013-08-24 01:30:00,
2013-08-23 19:35:00,82.9,66.1,29.73,SE,135,8.2,9.2,57,0.00,CLR,,0.00,WeatherDisplay:10.37,2013-08-24 01:35:00,
2013-08-23 19:40:00,82.6,66.3,29.73,SE,135,9.0,10.4,58,0.00,CLR,,0.00,WeatherDisplay:10.37,2013-08-24 01:40:00,
2013-08-23 19:45:00,82.4,66.6,29.73,ESE,112,7.7,9.2,59,0.00,CLR,,0.00,WeatherDisplay:10.37,2013-08-24 01:45:00,
2013-08-23 19:50:00,82.2,66.4,29.73,ESE,112,8.6,10.9,59,0.00,CLR,,0.00,WeatherDisplay:10.37,2013-08-24 01:50:00,
2013-08-23 19:55:00,82.0,66.3,29.73,ESE,112,7.9,10.4,59,0.00,CLR,,0.00,WeatherDisplay:10.37,2013-08-24 01:55:00,
2013-08-23 20:00:00,81.7,66.5,29.73,SE,135,9.0,10.4,60,0.00,CLR,,0.00,WeatherDisplay:10.37,2013-08-24 02:00:00,
2013-08-23 20:05:00,81.3,66.6,29.73,ESE,112,6.5,8.8,61,0.00,CLR,,0.00,WeatherDisplay:10.37,2013-08-24 02:05:00,
2013-08-23 20:10:00,81.0,66.3,29.73,ESE,112,6.5,7.8,61,0.00,CLR,,0.00,WeatherDisplay:10.37,2013-08-24 02:10:00,
2013-08-23 20:15:00,81.0,66.3,29.74,ESE,112,8.3,10.4,61,0.00,CLR,,0.00,WeatherDisplay:10.37,2013-08-24 02:15:00,
2013-08-23 20:20:00,80.6,66.4,29.74,SE,135,6.4,8.3,62,0.00,CLR,,0.00,WeatherDisplay:10.37,2013-08-24 02:20:00,
2013-08-23 20:25:00,80.2,66.5,29.74,East,90,8.4,9.4,63,0.00,CLR,,0.00,WeatherDisplay:10.37,2013-08-24 02:25:00,
2013-08-23 20:30:00,80.1,66.4,29.75,SE,135,8.0,9.2,63,0.00,CLR,,0.00,WeatherDisplay:10.37,2013-08-24 02:30:00,
2013-08-23 20:35:00,79.9,66.2,29.75,SE,135,7.2,9.2,63,0.00,CLR,,0.00,WeatherDisplay:10.37,2013-08-24 02:35:00,
2013-08-23 20:40:00,79.7,66.4,29.75,ESE,112,7.3,8.8,64,0.00,CLR,,0.00,WeatherDisplay:10.37,2013-08-24 02:40:00,
2013-08-23 20:45:00,79.3,66.1,29.75,SE,135,6.0,6.9,64,0.00,CLR,,0.00,WeatherDisplay:10.37,2013-08-24 02:45:00,
2013-08-23 20:50:00,79.2,66.0,29.75,SE,135,5.2,9.9,64,0.00,CLR,,0.00,WeatherDisplay:10.37,2013-08-24 02:50:00,
2013-08-23 20:55:00,78.8,66.0,29.75,SE,135,7.3,9.2,65,0.00,CLR,,0.00,WeatherDisplay:10.37,2013-08-24 02:55:00,
2013-08-23 21:00:00,78.6,65.8,29.75,ESE,112,6.7,9.2,65,0.00,CLR,,0.00,WeatherDisplay:10.37,2013-08-24 03:00:00,
2013-08-23 21:05:00,78.3,66.0,29.75,ESE,112,5.6,7.8,66,0.00,CLR,,0.00,WeatherDisplay:10.37,2013-08-24 03:05:00,
2013-08-23 21:10:00,77.9,66.1,29.75,ESE,112,5.9,8.1,67,0.00,CLR,,0.00,WeatherDisplay:10.37,2013-08-24 03:10:00,
2013-08-23 21:15:00,77.7,66.3,29.75,SE,135,7.7,8.8,68,0.00,CLR,,0.00,WeatherDisplay:10.37,2013-08-24 03:15:00,
2013-08-23 21:20:00,77.5,66.5,29.75,ESE,112,5.2,5.8,69,0.00,CLR,,0.00,WeatherDisplay:10.37,2013-08-24 03:20:00,
2013-08-23 21:25:00,77.4,66.4,29.75,SE,135,7.3,10.4,69,0.00,CLR,,0.00,WeatherDisplay:10.37,2013-08-24 03:25:00,
2013-08-23 21:30:00,77.2,66.7,29.75,ESE,112,7.8,9.9,70,0.00,CLR,,0.00,WeatherDisplay:10.37,2013-08-24 03:30:00,
2013-08-23 21:35:00,77.0,66.5,29.75,ESE,112,8.0,9.2,70,0.00,CLR,,0.00,WeatherDisplay:10.37,2013-08-24 03:35:00,
2013-08-23 21:40:00,76.6,66.5,29.75,SE,135,6.6,8.1,71,0.00,CLR,,0.00,WeatherDisplay:10.37,2013-08-24 03:40:00,
2013-08-23 21:45:00,76.5,66.4,29.75,ESE,112,7.5,8.1,71,0.00,CLR,,0.00,WeatherDisplay:10.37,2013-08-24 03:45:00,
2013-08-23 21:50:00,76.1,66.4,29.75,ESE,112,7.9,8.1,72,0.00,CLR,,0.00,WeatherDisplay:10.37,2013-08-24 03:50:00,
2013-08-23 21:55:00,76.1,66.4,29.75,SSE,158,6.9,9.9,72,0.00,CLR,,0.00,WeatherDisplay:10.37,2013-08-24 03:55:00,
2013-08-23 22:00:00,75.7,66.0,29.75,ESE,112,7.2,9.9,72,0.00,CLR,,0.00,WeatherDisplay:10.37,2013-08-24 04:00:00,
2013-08-23 22:01:00,75.7,66.0,29.75,ESE,112,7.4,9.9,72,0.00,CLR,,0.00,WeatherDisplay:10.37,2013-08-24 04:01:00,
2013-08-23 22:06:00,75.6,66.3,29.75,SSE,158,6.3,6.9,73,0.00,CLR,,0.00,WeatherDisplay:10.37,2013-08-24 04:06:00,
2013-08-23 22:11:00,75.2,65.9,29.75,ESE,112,5.5,6.9,73,0.00,CLR,,0.00,WeatherDisplay:10.37,2013-08-24 04:11:00,
2013-08-23 22:16:00,75.0,66.1,29.74,SE,135,6.6,8.1,74,0.00,CLR,,0.00,WeatherDisplay:10.37,2013-08-24 04:16:00,
2013-08-23 22:21:00,74.8,66.0,29.74,ESE,112,5.5,6.9,74,0.00,CLR,,0.00,WeatherDisplay:10.37,2013-08-24 04:21:00,
2013-08-23 22:26:00,74.7,65.9,29.74,ESE,112,6.9,8.1,74,0.00,CLR,,0.00,WeatherDisplay:10.37,2013-08-24 04:26:00,
2013-08-23 22:31:00,74.5,66.1,29.74,ESE,112,7.6,9.2,75,0.00,CLR,,0.00,WeatherDisplay:10.37,2013-08-24 04:31:00,
2013-08-23 22:36:00,74.3,65.9,29.74,ESE,112,5.0,5.8,75,0.00,CLR,,0.00,WeatherDisplay:10.37,2013-08-24 04:36:00,
2013-08-23 22:41:00,74.1,65.7,29.74,ESE,112,6.1,7.8,75,0.00,CLR,,0.00,WeatherDisplay:10.37,2013-08-24 04:41:00,
2013-08-23 22:46:00,73.8,65.8,29.74,ESE,112,5.2,5.8,76,0.00,CLR,,0.00,WeatherDisplay:10.37,2013-08-24 04:46:00,
2013-08-23 22:51:00,73.6,65.6,29.75,ESE,112,3.5,4.6,76,0.00,CLR,,0.00,WeatherDisplay:10.37,2013-08-24 04:51:00,
2013-08-23 22:56:00,73.4,65.7,29.75,SE,135,4.1,5.3,77,0.00,CLR,,0.00,WeatherDisplay:10.37,2013-08-24 04:56:00,
2013-08-23 23:01:00,73.2,65.6,29.75,SE,135,2.8,3.2,77,0.00,CLR,,0.00,WeatherDisplay:10.37,2013-08-24 05:01:00,
2013-08-23 23:06:00,73.2,65.6,29.75,ESE,112,4.1,4.6,77,0.00,CLR,,0.00,WeatherDisplay:10.37,2013-08-24 05:06:00,
2013-08-23 23:11:00,73.0,65.4,29.75,NE,45,2.2,2.7,77,0.00,CLR,,0.00,WeatherDisplay:10.37,2013-08-24 05:11:00,
2013-08-23 23:16:00,72.7,65.4,29.75,SE,135,2.6,3.2,78,0.00,CLR,,0.00,WeatherDisplay:10.37,2013-08-24 05:16:00,
2013-08-23 23:21:00,72.7,65.4,29.75,ENE,68,2.6,3.5,78,0.00,CLR,,0.00,WeatherDisplay:10.37,2013-08-24 05:21:00,
2013-08-23 23:26:00,72.5,65.6,29.75,ESE,112,3.0,3.0,79,0.00,CLR,,0.00,WeatherDisplay:10.37,2013-08-24 05:26:00,
2013-08-23 23:31:00,72.5,65.6,29.75,NE,45,2.2,3.2,79,0.00,CLR,,0.00,WeatherDisplay:10.37,2013-08-24 05:31:00,
2013-08-23 23:36:00,72.3,65.4,29.75,SE,135,2.5,2.7,79,0.00,CLR,,0.00,WeatherDisplay:10.37,2013-08-24 05:36:00,
2013-08-23 23:41:00,72.1,65.6,29.75,East,90,1.8,2.3,80,0.00,CLR,,0.00,WeatherDisplay:10.37,2013-08-24 05:41:00,
2013-08-23 23:46:00,72.1,65.6,29.75,ENE,68,2.0,2.3,80,0.00,CLR,,0.00,WeatherDisplay:10.37,2013-08-24 05:46:00,
2013-08-23 23:51:00,72.0,65.5,29.75,East,90,2.4,5.8,80,0.00,CLR,,0.00,WeatherDisplay:10.37,2013-08-24 05:51:00,
2013-08-23 23:56:00,72.0,65.8,29.75,ESE,112,2.6,3.7,81,0.00,CLR,,0.00,WeatherDisplay:10.37,2013-08-24 05:56:00,